Wind_Speed
61 61 62 64 66 64 63 61 59 58 57 58 60 60 58 56 55 55 55 56 57 57 58 59 59 59 60 61 63 64 64 63 59 55 53 53 53 50 47 46 46 46 46 47 48 47 47 47 46 45 45 45 45 44 42 41 39 38 38 39 40 41 43 45 49 53 56 58 58 57 57 58 58 57 56 55 54 52 51 52 53 55 55 55 55
61 61 62 63 64 62 59 57 56 56 56 57 59 59 59 59 57 56 56 57 59 60 61 63 64 64 64 64 65 65 65 64 61 57 55 54 55 55 52 50 49 48 48 48 49 50 49 49 48 48 47 47 47 47 46 45 44 43 42 41 41 41 42 43 45 47 51 55 58 60 60 60 60 59 58 58 57 55 54 54 55 57 58 59 59
59 60 60 60 60 60 59 56 56 58 60 62 63 63 64 65 63 61 59 59 59 61 64 66 67 66 65 65 64 64 63 61 59 57 55 54 54 56 56 55 54 53 52 50 50 51 51 51 50 50 50 50 50 50 50 49 48 47 47 46 45 44 44 44 44 45 47 49 52 56 59 61 62 62 61 60 59 58 57 57 57 58 60 61 62
57 57 58 57 57 57 58 57 58 61 64 65 66 67 68 68 67 64 62 61 62 65 67 68 67 67 66 65 64 62 61 59 57 56 55 53 52 54 55 55 55 56 56 55 53 52 52 52 52 51 51 52 53 53 53 53 52 51 51 50 50 49 48 47 46 46 46 47 49 51 54 56 59 62 64 63 63 61 60 60 60 60 62 63 64
54 55 56 56 56 57 58 59 61 64 65 65 65 66 66 66 65 64 64 66 69 71 72 71 69 68 67 64 62 61 59 58 57 56 55 53 52 52 53 54 55 56 57 58 57 55 54 54 53 52 53 53 54 55 55 56 55 55 55 54 54 53 52 52 51 50 49 48 49 49 51 53 55 58 61 64 65 65 64 64 64 64 64 64 65
53 54 55 56 56 57 59 61 63 65 67 68 67 66 66 67 68 68 69 71 73 73 74 73 70 69 67 63 61 61 61 59 58 58 56 55 54 54 55 56 56 56 58 59 59 58 57 57 56 56 56 56 57 57 57 57 57 57 58 58 58 57 57 56 56 55 54 52 51 51 51 53 54 55 57 60 63 65 67 67 67 67 67 67 66
53 53 55 55 56 57 58 59 60 61 65 68 68 68 69 70 70 70 71 71 70 70 69 68 66 64 64 65 63 62 61 59 57 58 57 56 55 54 54 55 55 55 56 57 58 59 58 58 59 59 59 59 59 59 59 59 58 59 59 60 60 60 60 60 60 59 59 58 57 56 55 55 55 56 57 58 60 62 65 67 68 69 70 70 70
54 54 55 55 56 57 58 57 56 56 59 65 68 69 70 70 69 68 66 63 62 63 61 61 61 58 59 66 67 62 59 56 54 53 53 53 52 52 52 53 54 54 54 55 56 58 58 58 58 60 60 60 61 61 61 60 60 61 61 62 62 63 63 63 63 63 62 62 62 61 60 59 59 59 59 59 60 61 63 65 67 68 70 71 72
55 54 55 55 57 58 59 59 58 56 58 61 64 66 68 68 67 65 62 59 59 61 60 61 63 62 62 68 68 63 58 54 51 49 48 49 50 51 52 52 51 52 52 54 56 57 58 58 59 60 61 61 61 62 62 62 63 63 64 64 65 65 65 65 65 65 65 65 65 65 65 64 63 63 62 62 62 63 64 65 66 68 69 70 71
55 54 54 55 57 58 60 61 61 60 61 62 63 65 65 65 64 63 61 59 58 60 61 62 65 66 65 65 63 60 58 56 55 53 50 49 49 50 51 51 50 50 50 51 54 56 59 60 61 62 63 63 63 63 64 65 66 66 66 67 67 67 68 68 67 67 68 68 68 68 68 67 67 67 67 66 66 66 66 66 67 68 69 70 71
57 56 56 56 58 59 61 62 63 63 65 66 68 68 65 62 61 60 58 58 59 60 61 62 63 64 63 61 58 57 57 58 59 58 56 53 51 51 52 53 54 55 54 53 53 54 56 59 61 63 64 66 67 67 67 68 68 69 70 70 70 69 69 70 70 70 71 72 72 71 71 71 71 70 70 70 70 70 69 69 69 69 70 71 72
57 57 57 58 60 62 61 62 64 64 64 66 67 67 64 61 60 59 58 58 58 59 60 60 61 63 63 61 58 58 59 59 60 60 60 58 56 57 58 59 60 61 61 60 58 57 57 57 59 60 62 65 67 68 70 71 71 72 73 73 72 71 70 71 72 73 74 74 74 75 74 74 75 74 73 73 74 73 73 72 72 72 72 73 73
57 57 58 59 62 63 62 63 64 65 65 65 66 67 66 64 63 63 62 61 59 59 59 60 61 63 63 62 60 61 62 63 62 62 62 61 60 61 63 64 63 63 64 65 64 63 62 60 60 60 61 63 65 67 70 73 74 74 75 76 76 75 74 74 74 75 76 76 77 77 78 77 78 78 77 77 76 76 76 76 75 75 76 76 76
59 59 60 61 63 64 63 64 64 65 66 67 67 67 68 67 66 65 65 65 64 63 63 62 61 63 63 63 63 63 64 65 65 64 64 64 65 66 66 66 65 64 64 66 67 68 68 66 65 64 64 65 66 67 69 72 73 73 74 76 77 77 77 77 76 77 77 78 79 80 81 81 81 81 80 79 79 78 78 79 79 78 78 79 79
60 61 61 62 63 63 64 65 64 65 67 68 68 68 68 68 67 67 67 67 67 66 66 65 63 63 64 65 65 66 67 67 68 68 68 69 69 69 68 67 66 66 66 67 68 69 70 71 71 70 70 70 70 69 70 71 71 70 71 73 74 75 76 76 76 77 78 79 80 82 83 84 85 84 84 83 82 81 81 81 82 81 81 81 82
60 61 62 63 64 64 64 65 65 65 67 69 69 69 68 68 68 69 69 69 69 68 68 68 68 68 68 69 69 70 70 71 72 72 72 72 72 70 69 68 68 68 69 69 70 70 71 73 74 74 75 75 75 75 74 74 72 71 71 72 73 74 74 74 75 76 77 78 80 82 84 85 85 85 85 85 85 85 84 84 84 84 83 84 85
59 60 61 61 62 63 63 63 64 65 66 68 69 69 68 68 68 69 70 70 70 70 70 70 71 71 72 72 72 72 73 73 74 74 74 73 73 72 71 71 71 71 72 72 73 73 74 75 76 77 78 78 79 80 80 79 77 75 75 74 74 74 74 74 75 76 77 78 80 81 83 84 84 85 86 86 87 87 87 86 86 86 84 84 86
59 59 58 58 59 59 60 61 62 64 65 66 68 69 69 68 68 69 69 70 70 70 70 71 71 72 72 72 72 73 74 74 74 75 75 75 74 74 74 74 74 74 74 75 75 76 76 77 77 79 80 81 82 83 84 84 83 82 81 79 78 77 76 76 77 78 79 80 80 81 81 82 84 86 87 87 88 88 88 87 87 87 86 86 86
61 60 59 59 58 58 58 59 60 62 64 66 67 69 69 69 69 69 68 68 68 69 69 70 71 71 72 72 73 74 74 75 75 76 76 76 76 76 76 77 77 77 77 77 77 77 78 78 79 79 81 82 83 84 85 86 86 86 86 85 83 82 80 79 79 80 80 81 81 81 82 83 85 86 87 88 88 88 88 88 88 88 87 87 87
64 64 63 62 61 59 58 58 59 61 63 65 66 68 68 69 68 68 67 67 67 68 69 70 71 72 73 74 75 75 76 76 76 76 77 77 78 78 79 79 79 79 79 79 79 79 79 79 79 80 80 81 83 84 86 87 88 88 88 88 87 86 85 84 83 83 82 82 81 81 82 83 85 86 87 88 88 89 89 89 89 89 88 88 88
68 67 67 66 65 63 62 61 61 61 63 64 65 66 67 68 68 67 67 68 68 70 71 73 74 75 76 77 77 77 77 77 78 78 79 79 80 80 81 81 81 81 80 80 80 80 79 79 79 79 80 81 82 83 85 86 87 88 88 88 88 88 87 87 86 86 85 84 84 83 83 83 84 84 85 86 88 89 89 89 90 91 91 91 91
70 70 70 69 68 67 66 65 64 64 65 66 67 68 68 68 69 69 69 70 72 73 75 76 78 79 79 80 79 79 79 79 80 80 81 80 81 81 81 82 82 82 81 81 81 81 80 79 78 78 78 79 80 81 83 84 85 86 86 87 88 88 88 88 87 86 85 85 84 84 84 84 84 84 85 85 86 87 88 89 90 91 92 93 93
72 72 72 72 72 71 70 69 68 67 68 69 70 70 70 71 71 71 72 73 75 77 78 79 80 81 81 81 81 80 80 80 81 81 81 81 81 81 82 82 82 82 82 81 81 80 79 78 77 76 76 76 76 77 79 81 82 83 84 85 85 86 86 86 86 85 84 84 83 84 84 84 84 84 85 85 85 86 87 88 89 90 91 92 93
75 75 74 74 74 74 74 73 72 71 72 72 72 73 73 74 75 75 76 77 79 80 81 81 82 82 83 83 82 81 81 81 81 82 82 81 81 82 82 83 83 82 81 81 80 79 77 75 74 73 72 72 73 73 74 76 78 79 80 81 82 83 84 84 84 83 83 83 82 82 83 83 83 83 83 84 84 85 85 86 87 88 89 90 91
79 78 78 77 77 77 78 77 76 76 75 75 74 75 75 76 77 79 80 81 82 82 83 83 84 84 84 84 83 82 82 82 82 82 82 82 82 82 82 83 82 81 80 79 78 76 73 71 70 69 69 69 69 70 71 72 74 74 75 76 77 79 80 80 80 80 80 80 80 80 80 80 80 80 80 80 81 82 83 84 84 85 86 86 87
83 82 81 80 80 79 80 80 79 79 78 78 77 77 77 78 80 82 83 83 83 83 84 85 85 86 85 85 83 82 82 82 82 82 81 81 81 82 82 81 80 79 77 76 74 72 70 68 66 65 65 66 66 66 67 68 69 70 70 71 72 73 74 75 76 76 76 76 76 76 76 76 76 76 76 77 77 78 78 79 79 79 80 80 80
86 85 84 83 82 81 80 80 80 80 80 79 78 78 78 80 81 83 83 83 83 83 83 84 85 86 87 86 84 83 82 82 82 82 81 80 79 79 78 77 76 75 74 72 70 68 67 65 63 62 62 62 63 63 64 64 64 65 66 66 67 68 69 70 70 71 71 71 72 72 72 72 73 73 72 72 73 73 73 72 72 72 73 72 72
87 87 86 85 84 82 81 79 79 79 79 78 76 76 78 80 81 82 83 84 84 83 83 84 85 86 86 86 86 85 84 84 83 82 79 77 75 74 73 72 71 70 69 68 66 65 63 62 61 60 60 61 61 60 60 60 60 61 61 61 62 62 63 64 64 65 65 66 66 67 67 68 68 68 68 68 67 67 67 65 65 65 65 65 65
84 84 85 85 85 84 83 81 79 79 78 76 74 74 76 78 79 80 81 81 81 81 82 83 84 84 84 84 84 83 83 82 81 80 78 75 72 70 69 68 67 66 65 64 62 61 60 60 59 59 58 58 58 57 58 58 58 57 57 57 57 58 58 58 59 59 60 60 61 61 62 63 63 63 63 63 62 62 62 61 60 60 60 60 60
78 79 81 82 83 83 83 81 80 79 77 74 73 73 74 75 76 77 78 78 77 78 80 80 80 79 79 79 79 78 78 77 76 76 75 73 70 67 65 64 63 62 61 60 59 58 58 58 57 57 56 56 55 55 56 55 55 54 54 54 54 54 54 54 54 54 55 56 56 57 58 58 59 59 59 59 59 59 59 57 56 55 55 55 55
69 71 73 76 77 79 79 78 78 78 76 73 72 72 72 73 73 74 75 76 76 76 76 74 73 73 73 74 73 72 71 72 72 72 72 70 67 64 62 60 59 58 58 57 57 56 56 55 55 54 54 54 54 53 53 52 51 51 51 51 50 50 50 50 50 50 51 52 53 53 54 54 54 55 55 55 55 55 54 53 51 51 50 51 51
61 63 65 67 69 72 72 72 72 73 73 70 69 69 69 69 70 70 71 73 74 73 69 67 67 67 68 67 65 65 66 68 68 68 67 65 62 60 58 56 55 55 55 55 54 54 53 53 53 53 53 52 51 50 49 49 48 48 47 46 46 45 45 46 46 47 47 48 48 49 49 50 50 51 51 51 51 50 50 49 48 47 47 47 47
58 58 60 61 63 65 67 67 67 68 68 67 66 66 66 65 65 65 66 68 69 67 64 62 62 62 62 61 60 61 63 63 63 63 62 60 58 56 55 54 53 53 53 53 52 51 51 51 52 51 51 50 49 48 47 46 45 44 42 42 41 41 41 41 42 43 43 43 44 46 47 47 46 46 46 46 46 46 46 45 45 44 44 44 44
57 56 56 57 58 60 62 62 62 62 63 62 61 62 62 61 61 61 62 63 63 62 60 59 59 58 57 58 58 59 58 58 58 58 57 56 55 54 52 52 51 51 51 50 50 50 50 50 50 49 48 47 46 45 44 43 41 40 39 38 38 38 39 39 39 40 40 41 42 43 43 43 43 43 43 42 42 43 43 42 42 42 41 41 40
55 54 53 54 54 55 57 59 59 59 58 58 57 58 58 58 58 58 57 58 59 58 57 57 57 56 55 56 56 56 55 55 55 54 54 53 53 51 50 50 50 49 49 48 48 48 48 48 47 47 46 45 44 43 41 40 39 38 37 36 37 37 38 38 37 38 40 41 41 40 40 40 40 40 40 40 40 39 39 39 39 38 37 37 37
52 51 51 51 51 52 54 55 55 55 55 55 54 54 54 55 56 55 53 53 54 55 55 55 54 53 53 53 54 54 53 53 52 52 51 51 50 49 49 48 48 48 47 47 47 46 46 45 45 44 44 43 42 41 40 38 37 36 35 35 36 37 37 37 37 38 38 39 38 38 38 38 38 38 37 37 36 36 35 35 35 34 33 33 33
50 50 49 48 48 48 50 51 51 51 52 51 50 51 52 53 52 51 50 50 52 52 52 52 51 51 51 51 51 52 52 51 50 49 48 47 47 47 47 47 46 46 46 46 45 45 44 43 43 42 42 41 41 40 39 37 36 35 34 34 35 36 36 36 36 36 36 36 36 36 35 35 34 34 33 33 32 32 31 31 30 29 28 28 28
48 48 47 46 45 45 47 47 48 48 48 48 48 49 49 49 48 47 46 48 50 51 50 49 49 48 48 49 49 49 48 47 46 45 45 45 45 45 45 44 45 45 45 44 44 43 42 41 41 41 40 40 39 38 37 36 35 34 34 34 34 34 35 35 34 34 33 33 33 33 32 31 31 30 30 29 28 27 27 26 25 25 24 24 24
45 45 45 44 43 43 44 44 45 45 45 46 46 47 47 46 45 44 44 46 48 49 48 47 46 46 46 46 46 45 43 42 42 43 43 43 42 42 42 43 43 43 43 42 41 41 40 40 40 40 39 39 38 38 37 35 34 34 33 33 33 33 33 33 32 31 30 30 29 29 29 29 28 27 26 25 24 23 23 23 23 22 22 22 23
41 41 41 41 41 41 41 42 42 43 43 44 44 44 45 45 43 42 43 45 47 47 46 45 44 44 44 43 42 40 40 40 40 41 41 41 41 41 41 41 41 41 41 40 40 40 40 40 39 39 38 38 38 37 36 35 34 33 32 32 32 31 31 30 29 28 28 27 27 27 27 26 25 24 23 22 21 21 21 21 21 22 22 22 22
37 37 37 38 38 38 38 39 40 41 41 42 42 43 43 43 42 42 42 43 44 45 45 44 42 40 40 40 38 37 37 38 39 39 39 40 39 39 39 39 39 39 38 38 39 39 39 39 38 38 38 37 37 36 35 34 33 32 31 30 30 29 28 27 26 26 25 25 25 24 24 23 22 21 21 20 20 19 20 20 20 21 21 21 21
33 34 35 35 36 36 36 37 37 38 39 40 40 41 41 41 41 41 41 42 43 44 44 41 38 37 37 37 36 36 36 37 38 38 38 38 38 38 38 37 37 37 37 38 38 38 38 37 37 37 37 36 36 35 34 33 32 30 29 28 28 27 26 25 24 23 23 23 23 22 21 20 20 20 19 19 18 18 18 18 18 19 19 19 19
31 31 32 32 33 33 34 34 35 35 37 37 38 38 39 39 40 40 41 42 42 42 40 38 36 35 35 35 35 36 37 37 37 37 37 36 36 36 36 36 36 36 37 37 37 37 37 36 36 36 36 36 35 34 33 31 30 28 27 26 26 26 24 22 22 22 22 21 21 19 18 18 18 18 18 17 17 16 16 16 16 17 17 17 17
28 28 29 29 30 30 31 31 32 32 33 34 35 36 36 37 37 38 38 39 38 38 37 36 36 35 35 35 36 37 36 35 35 35 35 35 35 35 35 35 36 36 36 36 36 36 36 36 36 36 35 35 34 33 32 30 28 26 25 25 25 24 22 21 20 20 20 19 18 17 17 16 16 16 16 16 15 15 15 15 15 15 16 16 15
25 25 25 25 26 26 27 28 29 30 31 31 32 32 33 33 34 34 35 35 35 35 35 35 35 35 36 36 36 35 34 34 34 34 34 34 34 35 35 35 36 36 35 35 35 35 35 35 35 35 34 34 33 31 30 28 26 24 24 24 23 23 21 20 19 19 18 17 17 16 15 14 14 15 15 15 15 15 15 14 14 14 14 14 13
23 23 22 22 22 23 23 24 25 27 28 29 30 30 31 31 31 32 32 32 33 33 34 34 35 35 35 34 33 33 32 33 33 33 33 34 34 35 35 35 35 35 35 34 34 34 34 34 34 33 32 32 31 30 28 26 25 24 23 23 22 22 21 19 18 17 17 16 16 15 13 13 14 15 15 15 15 15 15 14 13 12 11 11 10
21 20 20 20 20 20 21 21 22 23 25 26 28 29 29 29 30 30 30 30 31 32 33 33 33 33 32 31 31 31 32 32 32 32 33 34 34 34 34 34 33 33 34 33 33 33 33 32 32 31 31 30 29 28 27 25 24 23 23 22 22 21 21 19 17 16 16 15 15 13 12 12 13 14 14 15 15 15 14 12 11 11 10 10 9
19 18 18 18 18 18 19 19 20 21 22 24 25 26 27 28 28 29 29 30 30 31 31 31 30 30 30 30 30 31 31 31 32 32 33 33 33 33 33 33 32 33 33 32 32 32 31 31 30 29 29 28 28 27 26 25 24 23 22 22 22 21 20 19 17 17 16 15 14 13 12 13 13 13 13 14 15 14 12 11 10 10 10 10 9
16 16 16 15 15 16 16 17 18 19 20 22 23 24 25 26 26 27 28 28 29 29 29 29 29 29 29 30 30 30 31 31 32 32 32 32 32 32 32 32 32 32 31 31 31 30 30 29 29 28 27 27 27 26 26 25 23 23 22 22 22 21 21 19 19 18 16 15 14 13 13 13 13 12 12 13 14 12 11 11 11 10 10 10 10
14 14 13 13 13 13 14 15 17 18 19 21 22 23 24 25 26 26 27 28 28 29 29 29 29 30 30 30 30 30 31 31 32 32 32 32 32 32 31 31 31 31 31 30 30 29 29 28 27 27 26 26 26 26 25 24 23 22 22 22 22 22 21 21 20 18 17 15 14 13 14 14 13 12 12 13 13 12 11 11 11 10 10 10 9
12 12 11 11 11 11 12 14 15 17 18 19 21 23 24 25 26 27 28 28 29 29 29 29 29 30 30 30 30 30 30 31 31 31 31 31 31 31 31 31 30 30 30 30 29 29 28 28 27 26 26 26 26 26 25 24 23 22 22 22 23 23 22 22 21 19 17 16 15 15 14 15 14 13 12 12 13 12 12 11 11 10 9 9 9
Wind_Direction
256 255 255 256 258 261 264 267 269 272 274 275 276 277 277 276 276 276 277 279 279 279 278 277 278 279 280 280 281 283 284 286 286 282 276 270 266 265 265 264 264 264 265 265 264 264 263 263 263 263 263 264 264 265 264 262 260 257 255 253 252 250 250 249 248 247 246 245 246 247 248 248 248 248 249 250 249 249 249 247 245 246 248 250 249
254 254 254 256 258 259 260 262 265 266 267 269 271 273 274 274 274 275 276 277 277 277 277 276 277 278 279 280 281 283 284 285 284 281 277 272 266 262 262 264 265 264 265 265 264 263 263 263 262 262 262 262 263 263 263 263 262 261 259 256 254 253 252 250 250 250 249 248 247 247 248 249 248 248 248 248 247 247 247 247 245 242 243 246 248
252 253 254 255 257 258 259 259 259 260 261 263 265 267 269 271 273 274 274 274 274 274 274 275 276 278 278 279 281 282 282 281 279 277 274 271 266 262 261 263 264 264 264 264 263 262 262 262 262 262 261 261 262 262 262 261 261 260 260 259 257 256 254 253 251 250 250 250 249 248 249 249 248 247 247 247 247 247 246 246 246 244 242 242 244
251 251 252 253 254 255 256 257 257 258 259 262 264 266 268 270 272 272 272 271 272 273 274 274 276 278 278 279 280 279 278 276 274 272 271 269 267 264 263 263 265 265 264 262 262 261 260 261 261 262 262 262 261 261 261 261 260 259 258 258 258 258 257 256 255 253 252 251 250 250 249 249 249 248 247 246 246 247 247 247 246 245 244 243 243
251 251 250 250 250 250 252 254 255 256 258 260 262 264 266 268 269 270 270 271 273 275 275 275 276 276 277 277 277 276 275 273 272 270 268 269 270 270 268 268 268 267 265 262 261 260 259 259 260 262 263 262 261 260 260 260 260 260 259 258 258 258 258 257 257 256 255 254 253 252 251 250 250 250 249 248 247 248 248 248 247 246 246 245 245
252 251 251 250 250 249 249 251 253 256 258 259 260 262 263 265 267 269 271 273 275 275 275 276 276 275 274 273 272 272 273 274 273 270 269 270 272 273 273 272 271 270 266 262 260 259 259 259 260 261 263 263 261 260 259 258 259 259 259 259 258 258 258 258 257 257 256 255 255 254 253 252 251 251 251 250 250 249 248 248 248 248 247 246 246
253 253 253 252 251 251 250 251 255 257 258 259 260 261 263 264 267 269 271 273 275 275 276 277 278 277 275 272 270 271 273 274 273 271 270 271 272 272 272 272 271 271 268 264 261 260 260 260 261 261 262 262 261 260 259 258 257 257 258 258 258 258 258 258 258 258 258 257 256 255 254 254 253 252 252 252 251 250 249 248 247 248 248 247 246
255 255 255 254 254 253 252 252 254 256 259 261 260 260 262 264 266 268 269 271 272 273 274 275 274 273 273 274 275 276 276 275 272 270 270 270 270 269 270 271 271 271 269 265 262 260 260 260 261 261 261 261 261 260 259 258 257 257 257 257 257 257 257 257 257 258 258 258 257 257 255 254 254 253 252 252 252 252 251 250 249 248 248 248 247
257 257 258 258 257 256 254 254 254 255 258 260 260 260 261 262 264 266 267 266 266 269 269 270 270 270 271 275 279 281 278 274 270 268 269 269 268 268 270 270 270 271 271 268 264 261 260 259 259 260 260 261 260 260 259 258 257 256 256 256 256 256 255 256 256 256 257 257 257 257 257 256 256 255 254 253 253 252 252 252 251 250 249 249 248
256 256 257 257 257 256 256 255 254 253 253 255 257 260 262 263 263 264 265 264 265 266 267 267 270 271 272 274 277 278 277 275 272 270 269 269 268 268 269 269 269 271 271 270 267 265 263 261 260 259 259 259 259 259 258 257 256 256 256 256 255 255 255 255 255 255 256 256 256 256 256 256 256 256 256 255 254 253 253 252 253 252 252 251 250
255 254 254 255 256 257 258 257 256 255 254 255 257 259 261 262 262 262 262 262 261 263 265 267 269 269 270 271 272 273 274 275 275 274 272 270 268 268 270 272 274 274 273 272 269 266 265 264 263 261 261 260 259 259 259 258 257 257 256 256 256 256 256 255 255 255 255 256 256 255 255 256 255 255 256 256 256 255 255 254 254 254 254 254 253
255 255 254 255 256 257 258 258 258 258 258 259 259 260 260 260 261 261 261 260 260 261 264 267 267 267 268 269 270 271 271 271 272 273 273 272 271 271 272 274 276 277 277 276 273 269 266 265 264 263 262 261 261 260 260 259 258 257 257 257 257 258 258 257 257 256 256 256 256 256 256 256 256 255 255 255 256 256 256 255 255 255 255 255 255
253 254 253 254 255 257 258 259 260 260 260 259 259 259 258 258 258 260 260 260 259 259 260 263 265 265 265 266 266 268 269 269 269 270 271 271 271 272 273 274 274 275 275 276 275 274 271 268 265 263 262 262 261 260 260 260 259 259 260 260 259 259 259 259 259 258 257 257 257 257 257 256 256 256 255 255 255 255 255 256 256 256 256 256 256
253 253 253 254 256 259 260 260 261 261 260 259 258 258 258 257 257 257 258 258 259 258 258 260 260 260 261 262 264 265 265 266 266 267 268 269 269 271 272 272 272 272 272 273 273 274 273 271 269 267 265 263 262 261 260 260 261 261 261 261 261 260 260 260 259 259 258 258 258 258 258 257 256 256 256 255 255 255 255 256 256 256 257 257 258
255 255 255 255 256 258 259 260 260 259 259 259 259 258 258 258 258 258 258 258 258 258 258 257 256 256 257 259 260 261 262 262 263 265 267 268 269 269 270 270 270 269 269 269 270 271 272 272 272 271 269 267 265 263 262 261 261 260 260 260 260 260 260 260 260 259 258 258 259 259 259 258 257 257 257 256 256 256 256 256 257 257 257 257 258
256 256 256 255 255 256 257 258 258 257 257 257 258 258 258 258 258 258 258 257 257 257 256 256 255 255 256 257 258 259 260 261 262 264 265 266 267 267 268 268 268 268 268 267 267 268 269 270 271 271 271 271 270 268 267 265 262 260 259 258 258 259 259 259 259 259 258 258 258 258 258 258 258 258 258 258 257 257 257 257 257 257 258 258 258
258 257 256 256 256 256 256 256 256 255 255 255 256 257 258 258 257 257 257 256 255 255 255 255 255 255 256 257 259 259 260 261 262 263 264 265 266 266 267 267 267 267 267 267 266 266 267 267 268 269 269 270 270 270 270 269 267 264 262 260 259 259 258 258 257 257 257 257 257 258 258 259 259 259 258 258 258 258 257 257 257 257 257 257 258
261 259 258 257 256 256 255 255 254 254 254 254 256 257 258 258 258 257 257 256 255 255 255 255 256 256 257 258 259 260 261 261 262 263 263 264 266 267 267 268 268 268 268 268 268 267 267 267 267 267 267 268 268 269 269 269 269 269 267 265 263 262 260 259 258 257 256 256 256 256 257 258 258 258 258 258 258 259 258 258 258 257 257 257 256
262 261 260 258 256 255 254 254 253 253 253 254 256 257 259 259 259 258 257 257 256 256 256 256 256 256 257 259 260 261 261 262 262 263 265 266 267 269 270 271 271 271 271 271 271 270 270 269 268 267 267 266 266 266 267 267 268 268 268 268 267 266 264 262 261 260 259 258 257 256 256 256 256 257 258 258 259 259 259 259 258 258 257 257 256
260 260 259 258 257 255 253 251 251 251 252 253 254 256 257 258 258 258 257 257 257 257 256 256 256 257 258 259 260 261 261 262 263 264 266 267 269 270 271 272 273 273 273 273 273 272 272 271 270 269 268 267 266 266 266 265 266 266 267 267 267 267 267 266 265 264 263 262 261 259 258 257 257 257 257 258 258 259 259 259 259 258 257 257 257
260 260 259 259 258 256 254 252 250 250 250 251 252 253 254 255 256 256 256 255 255 255 255 255 255 256 257 258 259 261 261 262 263 264 266 267 269 270 272 273 273 274 274 274 274 274 273 273 272 271 270 269 268 267 266 265 265 265 265 266 266 267 267 266 266 266 265 265 264 264 262 261 260 260 259 258 258 258 258 258 258 258 257 257 256
261 261 262 261 260 259 257 255 253 251 251 251 251 251 252 253 254 254 254 254 254 254 254 254 255 256 257 258 259 261 262 263 264 265 267 268 270 271 272 273 274 275 275 275 275 275 274 274 273 272 271 270 269 268 268 267 267 266 266 266 266 266 266 266 266 266 266 266 266 266 266 265 264 263 262 261 260 260 260 259 258 258 257 256 256
261 261 262 262 262 262 260 258 256 254 253 253 253 253 253 254 254 254 254 254 254 254 254 255 256 258 259 260 261 262 263 265 266 268 269 270 271 272 273 273 274 274 274 275 275 275 275 274 274 273 272 271 270 269 268 268 268 267 267 267 267 267 267 268 268 268 268 268 267 267 267 266 266 266 265 264 264 263 262 262 261 260 259 258 256
261 261 261 261 262 262 262 261 259 257 256 254 254 254 254 255 255 255 254 254 255 255 256 258 259 260 261 262 263 264 265 266 267 269 270 271 271 272 272 272 273 273 274 274 274 275 275 275 274 273 272 271 270 269 269 268 268 268 268 268 268 268 268 268 269 269 269 269 269 268 268 268 267 267 266 266 266 265 265 264 263 262 261 261 259
262 261 261 260 260 261 261 261 261 260 259 258 257 256 256 256 256 256 256 256 257 258 259 260 260 261 262 263 264 265 266 266 267 268 268 269 270 271 271 272 273 274 274 275 275 275 275 274 273 273 272 271 270 270 269 269 268 268 269 269 269 269 269 269 269 269 269 269 269 269 269 269 268 268 268 267 267 266 266 265 264 264 263 263 262
265 264 263 262 261 260 260 260 261 261 260 260 259 259 258 258 258 258 259 259 260 260 261 262 263 264 264 264 264 265 265 265 266 266 266 267 269 270 271 272 273 274 275 275 275 275 274 274 273 272 272 271 270 270 269 269 269 269 269 269 269 269 270 270 270 270 270 270 270 270 270 270 270 269 269 268 268 267 266 266 266 265 265 265 264
266 266 265 264 263 262 261 260 260 260 259 259 258 259 259 259 259 259 260 260 261 261 262 263 264 265 266 267 267 267 267 267 267 266 267 268 269 270 271 272 273 274 274 274 274 274 274 273 273 272 272 271 270 270 270 270 270 270 270 270 270 270 270 270 270 271 271 271 271 271 271 271 271 270 270 270 269 269 268 268 268 268 268 267 267
265 266 266 266 266 265 264 263 262 261 260 259 258 258 258 258 258 258 259 259 260 261 261 262 263 264 265 267 268 269 269 269 269 270 270 270 270 271 271 272 272 272 272 272 273 273 273 273 272 272 272 271 271 272 272 272 272 272 271 271 271 271 271 271 271 271 271 271 271 271 271 271 271 271 271 271 271 271 271 271 271 271 270 269 269
263 263 265 265 266 266 266 266 265 264 263 262 261 260 259 259 259 259 259 259 259 260 260 260 260 261 263 264 266 267 268 270 271 272 272 272 271 271 270 270 270 270 271 271 271 272 272 272 272 272 272 273 274 274 274 274 274 274 273 273 273 273 272 272 272 272 272 272 272 272 271 271 272 272 272 273 273 273 273 273 272 272 271 271 271
262 262 263 263 264 265 265 265 266 266 265 264 263 261 260 260 260 260 260 260 259 259 259 258 259 260 261 262 263 264 266 268 269 270 270 270 270 270 270 269 269 270 270 270 270 271 271 272 272 273 274 275 276 276 275 275 276 276 275 275 275 275 274 274 274 273 273 272 272 271 271 272 273 273 274 273 273 273 273 273 274 274 274 274 273
263 262 262 262 262 263 263 263 264 264 264 263 262 261 260 260 260 260 260 261 260 259 258 258 259 260 260 261 262 263 264 265 265 266 267 268 269 269 269 268 268 268 269 269 270 271 272 273 274 275 276 276 276 276 276 276 277 277 276 276 276 276 276 276 275 274 273 273 273 273 273 273 273 273 273 273 274 275 276 277 277 276 275 274 273
264 262 261 261 261 261 261 261 260 261 261 261 260 260 260 259 259 259 259 260 260 260 260 260 260 260 260 260 261 262 262 262 263 264 265 266 267 268 267 267 267 268 268 269 270 272 273 275 275 275 276 276 276 277 277 277 277 277 277 277 277 277 276 275 275 274 274 274 274 274 273 272 272 272 273 275 276 276 277 277 277 276 275 275 274
265 263 261 260 259 260 260 259 259 259 259 260 259 259 259 259 259 259 259 259 260 261 261 261 260 260 260 260 260 259 260 261 262 263 264 265 265 265 266 266 267 268 269 270 272 273 274 275 275 275 276 276 277 277 278 278 278 278 279 279 279 277 275 274 274 274 274 274 273 273 273 273 274 274 275 276 276 276 277 277 277 277 276 275 275
265 263 261 259 258 258 259 260 259 259 259 259 259 260 260 259 259 259 259 259 260 261 261 260 260 260 259 259 259 258 259 260 261 262 263 263 263 264 264 265 267 268 269 271 273 273 274 274 274 275 276 277 278 278 279 279 280 281 281 280 279 278 276 275 275 275 274 273 273 273 274 276 276 276 276 276 276 276 276 277 276 276 276 276 275
264 263 261 259 257 256 256 257 258 258 258 258 258 258 259 259 259 258 258 258 259 260 260 259 259 258 258 257 257 258 258 258 259 260 261 261 262 263 265 266 267 268 270 271 272 272 273 274 275 276 277 278 279 280 280 281 282 282 282 281 280 279 278 278 277 276 275 275 275 276 277 277 276 276 276 276 276 276 276 276 276 276 276 275 274
263 262 260 258 257 256 255 255 256 257 258 257 257 256 257 257 257 257 256 257 257 258 258 258 257 257 256 256 256 256 256 256 256 257 259 261 262 264 265 266 267 268 269 270 270 271 272 274 275 276 277 278 279 280 282 283 283 283 283 282 281 281 280 279 278 277 276 277 277 277 276 276 276 277 277 277 277 277 276 276 275 275 274 273 272
262 260 259 257 255 254 254 254 254 255 256 257 257 256 256 256 256 256 256 256 256 256 256 256 256 256 255 254 254 254 255 255 256 258 259 261 262 263 264 265 267 268 268 269 270 271 273 274 275 276 277 278 279 281 282 283 283 283 283 283 282 282 281 280 279 278 277 277 277 277 277 277 277 277 277 276 276 276 275 275 274 273 272 272 271
260 260 259 257 255 254 253 253 253 253 253 254 254 254 254 254 254 254 254 254 255 254 254 254 254 254 254 253 253 254 255 256 258 258 259 259 260 261 262 264 265 266 267 269 270 272 273 275 276 276 277 279 280 282 282 283 284 284 284 283 283 283 282 281 279 279 278 278 278 278 278 278 277 276 276 276 276 276 276 275 274 274 274 275 275
260 259 258 257 255 253 252 251 251 251 251 251 251 252 252 252 252 251 251 251 252 253 253 253 253 252 252 252 253 254 255 256 256 257 257 257 258 259 260 261 263 265 266 268 270 272 273 274 274 276 278 279 281 282 282 283 284 284 284 284 283 282 281 281 280 280 279 279 278 278 277 276 276 277 277 277 277 277 277 277 278 279 280 280 281
262 261 260 258 256 254 252 251 250 249 249 249 249 250 250 250 250 249 248 249 251 252 252 252 251 251 252 253 253 254 254 254 254 255 255 256 257 258 259 260 262 264 266 268 269 270 271 272 274 276 277 279 279 280 282 283 283 283 284 284 283 282 281 280 280 280 279 278 277 275 275 275 277 277 277 277 277 277 278 280 282 283 283 283 282
261 260 259 258 256 254 252 251 249 249 248 248 248 248 248 248 248 247 247 248 249 251 251 251 251 251 252 253 253 253 253 253 253 253 254 255 256 257 258 260 261 263 265 266 267 268 269 271 274 275 276 277 278 279 280 281 282 282 283 283 282 280 279 279 279 278 276 274 273 272 273 275 276 275 275 276 276 277 278 280 281 282 282 281 280
258 257 256 255 254 252 250 249 248 247 247 246 246 246 247 247 247 246 246 247 248 249 251 252 253 252 252 252 252 252 251 251 251 252 253 255 256 257 258 259 261 262 263 264 265 267 269 271 273 274 275 276 277 278 279 280 280 281 282 281 279 278 277 277 275 272 270 269 269 269 270 271 271 272 273 274 275 277 278 280 281 281 280 279 277
255 254 254 253 252 251 249 248 247 245 245 245 244 244 244 244 244 244 244 245 247 249 252 253 253 252 251 251 250 249 249 249 250 252 254 255 256 257 258 259 260 261 261 263 265 267 269 270 271 272 273 274 275 276 277 278 279 279 279 277 275 274 273 271 268 265 264 265 265 266 266 267 268 271 273 274 277 279 280 281 282 282 281 279 276
254 253 252 252 251 250 249 247 246 245 244 244 244 243 243 243 243 244 244 245 247 249 250 251 250 250 249 249 248 248 249 250 251 252 253 254 256 256 257 258 258 259 261 263 264 266 267 267 268 269 270 271 272 274 275 275 276 276 274 272 270 268 266 263 261 259 260 261 262 264 265 267 270 273 277 280 283 284 284 284 285 284 283 281 278
254 252 251 250 249 248 247 246 244 242 241 240 240 240 241 242 242 243 243 244 245 245 246 247 247 247 246 246 247 248 249 250 251 251 253 254 254 255 255 256 257 259 260 261 262 262 263 263 264 265 266 268 269 271 272 273 273 272 269 265 262 261 260 257 255 254 256 259 262 264 266 270 275 279 283 286 288 288 289 290 290 288 286 284 281
254 252 250 249 247 246 244 242 241 240 238 236 235 234 235 236 237 238 239 240 241 241 242 243 243 244 244 246 247 248 248 249 249 250 251 251 252 253 254 255 256 257 257 258 258 258 258 259 260 261 262 264 266 268 269 269 269 267 262 258 255 254 254 251 248 248 252 256 260 263 267 274 280 283 287 290 291 292 294 295 294 292 289 287 285
255 252 250 248 245 243 241 238 235 234 234 233 231 230 230 230 232 233 234 236 237 238 238 240 241 243 244 245 245 246 246 246 247 247 248 249 251 252 253 254 254 255 254 254 254 254 254 254 255 257 259 261 263 265 265 265 264 261 255 251 249 249 248 245 242 244 247 251 255 261 267 273 277 282 286 290 292 295 297 297 295 294 293 290 287
257 254 251 248 245 242 239 236 232 229 228 227 226 226 226 226 227 228 230 232 234 236 237 239 241 242 242 242 242 243 244 244 245 246 247 249 250 251 251 252 252 251 251 250 249 249 249 250 251 253 255 258 260 261 261 261 258 254 249 246 244 243 242 240 238 239 242 246 252 259 265 269 273 278 284 289 293 295 296 295 296 297 296 292 290
259 256 253 249 246 242 238 235 231 227 224 221 220 220 221 222 224 226 228 230 232 234 235 237 238 238 239 239 240 242 243 244 245 246 247 248 249 249 249 248 247 246 246 245 244 244 244 245 247 249 252 254 256 257 257 256 253 248 245 242 240 238 238 237 237 236 237 242 249 256 261 265 268 274 282 288 291 292 293 294 297 298 297 295 293
255 256 254 251 247 242 237 232 230 227 224 220 218 217 216 217 219 221 224 226 229 231 232 234 235 237 238 239 240 242 243 244 245 245 246 246 246 246 245 244 243 242 241 240 240 240 241 242 243 245 248 250 252 253 253 252 249 245 241 238 236 235 235 236 236 236 237 240 245 251 257 261 264 268 276 283 286 287 289 292 295 296 297 296 295
247 246 247 247 246 243 236 230 227 226 225 223 221 219 218 218 219 220 222 224 226 228 230 232 234 236 237 238 239 240 241 242 242 243 243 242 242 241 240 240 239 238 238 237 237 238 238 239 240 242 244 247 248 249 249 248 246 242 238 235 233 233 234 235 236 237 238 240 243 247 252 257 261 264 267 273 277 280 283 288 292 294 294 294 294
Height
10543 10542 10541 10537 10534 10533 10532 10530 10528 10526 10524 10523 10523 10524 10527 10530 10532 10533 10534 10535 10535 10536 10536 10536 10536 10537 10538 10538 10538 10537 10537 10537 10538 10539 10540 10540 10540 10541 10541 10542 10543 10544 10545 10546 10546 10547 10548 10549 10550 10552 10553 10553 10554 10554 10555 10556 10556 10557 10558 10559 10560 10562 10563 10564 10565 10566 10568 10569 10571 10572 10574 10575 10577 10578 10580 10581 10582 10584 10586 10588 10589 10590 10591 10592 10594
10534 10534 10533 10530 10528 10528 10527 10526 10525 10523 10521 10519 10518 10518 10520 10523 10526 10529 10530 10530 10529 10529 10529 10529 10529 10530 10531 10531 10531 10530 10530 10530 10531 10531 10532 10532 10533 10534 10534 10536 10537 10538 10539 10539 10540 10541 10542 10543 10544 10546 10547 10548 10549 10550 10550 10551 10552 10552 10553 10554 10555 10556 10557 10558 10559 10560 10561 10563 10564 10566 10568 10569 10570 10571 10572 10574 10575 10577 10579 10580 10582 10583 10585 10586 10587
10527 10527 10526 10524 10523 10522 10522 10522 10521 10518 10515 10514 10514 10514 10515 10517 10520 10523 10525 10525 10524 10523 10522 10522 10522 10523 10524 10525 10524 10524 10523 10523 10523 10523 10523 10524 10524 10526 10527 10528 10530 10531 10532 10533 10533 10534 10535 10536 10538 10539 10541 10542 10543 10544 10545 10546 10547 10547 10547 10548 10549 10549 10551 10552 10553 10554 10555 10556 10557 10559 10560 10562 10563 10563 10564 10566 10568 10569 10571 10573 10574 10576 10578 10580 10581
10519 10520 10519 10519 10519 10517 10517 10518 10516 10512 10510 10510 10512 10511 10510 10511 10513 10516 10518 10518 10517 10516 10515 10516 10518 10517 10517 10517 10517 10516 10516 10517 10517 10516 10516 10517 10518 10518 10520 10521 10522 10524 10525 10526 10526 10527 10529 10530 10532 10533 10535 10536 10537 10537 10538 10539 10540 10541 10542 10542 10543 10544 10545 10546 10547 10548 10549 10550 10551 10552 10553 10555 10555 10555 10556 10558 10560 10562 10564 10565 10566 10568 10570 10572 10574
10511 10511 10511 10512 10513 10513 10514 10514 10511 10508 10506 10507 10508 10507 10505 10504 10504 10507 10510 10509 10508 10507 10506 10508 10512 10511 10509 10509 10508 10508 10509 10510 10510 10510 10510 10512 10512 10512 10513 10514 10515 10516 10517 10518 10519 10520 10522 10523 10525 10527 10528 10529 10529 10530 10531 10532 10533 10535 10535 10536 10537 10538 10539 10540 10541 10542 10542 10543 10544 10545 10546 10547 10548 10548 10548 10550 10552 10554 10555 10557 10559 10560 10562 10564 10566
10502 10503 10503 10504 10506 10507 10507 10507 10506 10504 10502 10502 10503 10502 10500 10498 10497 10499 10501 10499 10498 10497 10495 10497 10500 10500 10500 10502 10501 10501 10502 10503 10503 10503 10504 10506 10506 10506 10505 10506 10506 10507 10508 10509 10511 10512 10514 10516 10518 10519 10520 10521 10521 10522 10523 10525 10526 10527 10528 10528 10529 10531 10532 10533 10534 10534 10536 10537 10538 10538 10539 10539 10540 10540 10540 10541 10543 10545 10547 10549 10550 10552 10553 10556 10558
10495 10496 10496 10497 10498 10498 10500 10501 10501 10498 10494 10493 10496 10495 10493 10493 10492 10493 10493 10492 10489 10487 10486 10487 10487 10487 10487 10490 10494 10496 10497 10498 10498 10497 10497 10498 10498 10498 10498 10497 10498 10499 10500 10501 10503 10504 10506 10508 10509 10510 10511 10512 10513 10514 10515 10517 10518 10519 10519 10520 10521 10523 10524 10525 10526 10527 10528 10529 10530 10531 10531 10532 10532 10533 10533 10534 10535 10536 10538 10539 10542 10543 10545 10547 10550
10489 10489 10489 10490 10490 10490 10491 10492 10492 10490 10486 10485 10487 10487 10486 10486 10486 10486 10487 10487 10483 10480 10480 10479 10478 10478 10475 10475 10481 10488 10491 10493 10493 10491 10491 10490 10490 10490 10491 10490 10490 10490 10491 10493 10495 10496 10497 10499 10500 10500 10501 10502 10503 10504 10506 10508 10509 10509 10510 10511 10512 10514 10515 10517 10518 10519 10520 10521 10521 10522 10523 10524 10524 10525 10526 10527 10527 10528 10529 10530 10532 10535 10536 10537 10540
10482 10483 10483 10483 10482 10481 10481 10482 10484 10483 10478 10477 10478 10478 10477 10477 10478 10479 10480 10480 10477 10475 10474 10472 10470 10471 10470 10468 10471 10476 10481 10485 10486 10486 10485 10485 10484 10484 10484 10484 10484 10484 10484 10485 10486 10488 10489 10490 10491 10491 10492 10493 10494 10495 10497 10498 10499 10499 10500 10501 10502 10504 10506 10508 10509 10511 10511 10512 10512 10513 10514 10516 10517 10517 10518 10519 10519 10519 10520 10521 10523 10524 10526 10528 10530
10475 10477 10476 10474 10473 10472 10472 10473 10476 10475 10471 10471 10471 10470 10469 10469 10470 10472 10474 10473 10471 10469 10468 10466 10464 10465 10466 10466 10466 10466 10469 10473 10476 10478 10479 10479 10478 10478 10477 10477 10477 10478 10479 10479 10480 10481 10481 10481 10482 10482 10484 10485 10486 10487 10488 10489 10489 10490 10491 10491 10492 10494 10497 10499 10501 10502 10502 10502 10503 10504 10505 10506 10508 10509 10509 10510 10511 10511 10512 10513 10514 10515 10516 10518 10519
10468 10469 10469 10467 10466 10464 10464 10464 10466 10467 10466 10465 10464 10463 10464 10464 10464 10466 10467 10466 10464 10462 10460 10459 10459 10458 10459 10461 10462 10461 10461 10463 10465 10467 10469 10471 10472 10472 10471 10470 10470 10470 10472 10473 10474 10474 10474 10474 10474 10475 10475 10476 10477 10478 10479 10480 10480 10481 10481 10481 10483 10485 10488 10490 10492 10492 10492 10492 10493 10494 10496 10496 10497 10499 10500 10500 10501 10503 10504 10505 10506 10506 10507 10508 10509
10461 10462 10462 10462 10458 10456 10456 10456 10457 10459 10460 10459 10457 10457 10458 10459 10457 10458 10460 10459 10458 10457 10455 10455 10454 10453 10453 10455 10456 10455 10455 10456 10457 10458 10460 10462 10464 10464 10464 10464 10464 10464 10464 10464 10465 10466 10467 10467 10467 10467 10467 10466 10467 10469 10469 10469 10471 10472 10472 10473 10475 10478 10480 10481 10482 10482 10483 10483 10483 10484 10486 10486 10486 10487 10490 10491 10491 10492 10494 10496 10497 10497 10498 10499 10499
10452 10453 10454 10452 10448 10446 10449 10450 10449 10451 10451 10450 10449 10450 10451 10452 10451 10451 10452 10453 10453 10452 10450 10450 10450 10448 10448 10449 10449 10448 10448 10449 10450 10451 10453 10455 10456 10456 10457 10457 10458 10458 10457 10456 10456 10456 10457 10458 10459 10459 10458 10458 10459 10459 10458 10458 10461 10463 10464 10464 10466 10468 10470 10470 10471 10472 10473 10473 10473 10473 10474 10475 10475 10475 10478 10480 10481 10482 10484 10485 10487 10488 10488 10489 10490
10443 10444 10444 10443 10441 10440 10441 10441 10442 10441 10439 10439 10441 10442 10443 10444 10444 10444 10445 10446 10446 10446 10445 10444 10444 10443 10442 10442 10442 10442 10442 10442 10443 10444 10446 10447 10448 10449 10450 10450 10451 10451 10451 10450 10449 10448 10447 10448 10449 10450 10449 10449 10450 10451 10451 10450 10452 10455 10456 10455 10455 10457 10458 10459 10460 10461 10462 10462 10462 10461 10461 10462 10463 10464 10466 10469 10471 10473 10474 10475 10475 10478 10479 10479 10479
10433 10434 10434 10435 10434 10434 10433 10432 10432 10432 10430 10430 10432 10434 10435 10436 10436 10436 10437 10438 10438 10438 10437 10437 10436 10436 10435 10435 10435 10435 10435 10435 10436 10437 10438 10439 10440 10441 10442 10443 10444 10444 10443 10443 10442 10440 10439 10438 10438 10438 10438 10439 10439 10441 10442 10441 10443 10446 10447 10445 10444 10446 10447 10448 10449 10449 10449 10450 10450 10449 10448 10448 10450 10453 10455 10457 10460 10463 10464 10464 10464 10466 10469 10469 10468
10422 10423 10423 10424 10424 10425 10424 10423 10423 10423 10422 10422 10423 10425 10426 10427 10428 10428 10429 10429 10429 10430 10429 10428 10428 10427 10426 10426 10426 10427 10427 10427 10428 10429 10430 10430 10431 10433 10434 10435 10436 10436 10435 10435 10434 10433 10431 10429 10429 10428 10428 10427 10427 10428 10430 10430 10432 10434 10435 10434 10434 10435 10436 10437 10438 10437 10437 10437 10437 10436 10435 10437 10440 10443 10444 10445 10447 10449 10451 10453 10453 10454 10457 10458 10457
10410 10412 10413 10414 10414 10415 10415 10415 10414 10414 10414 10414 10415 10416 10417 10418 10419 10419 10420 10420 10421 10421 10421 10420 10419 10419 10419 10419 10419 10418 10418 10419 10419 10420 10421 10422 10422 10424 10425 10426 10427 10427 10426 10426 10425 10424 10423 10421 10420 10419 10418 10417 10416 10416 10416 10417 10418 10420 10421 10421 10422 10423 10425 10426 10426 10426 10425 10424 10424 10424 10425 10427 10429 10430 10431 10431 10432 10434 10437 10440 10441 10442 10445 10446 10445
10399 10401 10403 10404 10405 10405 10406 10406 10405 10406 10406 10407 10407 10407 10408 10409 10409 10410 10410 10411 10412 10413 10414 10413 10412 10412 10411 10411 10410 10410 10410 10410 10410 10411 10412 10413 10414 10415 10415 10416 10417 10416 10416 10416 10415 10414 10414 10413 10412 10410 10409 10408 10406 10405 10405 10404 10405 10406 10406 10408 10409 10411 10412 10413 10413 10413 10412 10412 10414 10415 10416 10417 10417 10417 10417 10418 10419 10420 10423 10426 10427 10429 10431 10432 10433
10387 10389 10391 10393 10394 10396 10397 10397 10397 10398 10398 10398 10398 10398 10398 10399 10399 10400 10402 10403 10404 10405 10406 10405 10405 10404 10403 10402 10401 10401 10401 10401 10401 10402 10403 10404 10404 10405 10405 10405 10405 10405 10404 10404 10404 10404 10403 10403 10402 10401 10399 10398 10396 10395 10394 10394 10393 10393 10393 10394 10395 10396 10398 10399 10400 10400 10401 10402 10404 10405 10405 10405 10405 10405 10405 10406 10407 10408 10410 10412 10414 10416 10417 10418 10419
10375 10377 10379 10381 10383 10386 10388 10389 10389 10389 10389 10389 10389 10389 10389 10389 10390 10391 10393 10394 10396 10396 10396 10396 10395 10394 10393 10392 10391 10391 10392 10392 10393 10394 10394 10395 10395 10395 10395 10394 10394 10393 10393 10392 10392 10392 10392 10391 10391 10390 10389 10387 10386 10384 10383 10382 10381 10381 10381 10381 10382 10383 10384 10385 10387 10387 10388 10390 10391 10392 10393 10393 10393 10394 10395 10395 10395 10396 10397 10398 10400 10402 10404 10405 10405
10365 10367 10369 10371 10373 10376 10378 10379 10380 10380 10380 10380 10379 10379 10379 10380 10381 10382 10384 10385 10386 10385 10385 10385 10384 10383 10382 10382 10382 10382 10383 10383 10384 10385 10386 10387 10387 10386 10385 10384 10383 10382 10382 10381 10381 10380 10380 10379 10378 10378 10377 10376 10374 10372 10371 10370 10370 10369 10370 10370 10371 10371 10372 10372 10373 10374 10375 10376 10377 10378 10379 10380 10380 10381 10382 10382 10383 10383 10384 10385 10386 10387 10389 10392 10392
10356 10357 10359 10360 10362 10364 10366 10369 10371 10371 10371 10371 10370 10369 10370 10370 10371 10372 10373 10374 10374 10374 10373 10373 10373 10372 10372 10372 10373 10374 10374 10375 10375 10375 10377 10378 10378 10377 10376 10374 10373 10372 10371 10371 10370 10369 10368 10368 10367 10366 10365 10363 10362 10361 10359 10358 10358 10358 10359 10359 10359 10359 10359 10359 10360 10361 10363 10364 10365 10365 10365 10366 10366 10366 10367 10368 10368 10369 10370 10370 10371 10371 10373 10376 10378
10346 10348 10349 10349 10350 10351 10353 10356 10359 10361 10361 10361 10360 10361 10361 10361 10361 10362 10363 10363 10362 10362 10361 10362 10362 10361 10361 10362 10363 10365 10366 10366 10366 10366 10366 10367 10367 10366 10365 10364 10363 10362 10361 10360 10358 10357 10357 10356 10356 10355 10353 10352 10351 10349 10348 10347 10346 10346 10346 10346 10347 10346 10347 10347 10348 10349 10350 10351 10352 10352 10352 10351 10352 10352 10352 10353 10353 10353 10354 10354 10355 10355 10357 10359 10361
10335 10337 10339 10339 10339 10340 10341 10342 10345 10347 10348 10349 10350 10350 10351 10351 10351 10351 10351 10351 10351 10351 10351 10352 10352 10351 10351 10351 10353 10355 10356 10356 10356 10356 10356 10356 10356 10355 10353 10352 10351 10351 10350 10349 10348 10347 10347 10346 10345 10344 10342 10341 10339 10338 10337 10336 10335 10335 10335 10335 10335 10335 10335 10336 10336 10337 10338 10338 10338 10339 10338 10338 10338 10338 10338 10339 10339 10339 10339 10339 10339 10340 10341 10343 10344
10322 10324 10326 10327 10329 10329 10329 10329 10332 10333 10335 10336 10338 10339 10339 10339 10339 10338 10338 10339 10340 10341 10341 10340 10340 10340 10340 10341 10343 10344 10345 10346 10346 10346 10346 10345 10345 10344 10342 10341 10340 10340 10339 10338 10337 10337 10336 10336 10335 10333 10331 10330 10329 10328 10327 10325 10324 10324 10324 10325 10325 10324 10324 10324 10325 10325 10326 10326 10326 10326 10325 10325 10325 10325 10325 10325 10326 10325 10324 10324 10325 10325 10326 10328 10329
10306 10309 10311 10313 10315 10317 10317 10318 10320 10321 10322 10323 10325 10327 10328 10328 10326 10325 10326 10327 10328 10329 10328 10328 10327 10327 10327 10328 10330 10332 10334 10334 10334 10334 10335 10335 10335 10334 10332 10331 10330 10330 10329 10328 10327 10326 10325 10325 10324 10323 10321 10320 10319 10317 10316 10315 10314 10314 10314 10314 10314 10314 10314 10314 10313 10314 10314 10314 10314 10313 10313 10312 10312 10312 10312 10312 10312 10311 10311 10311 10313 10313 10314 10316 10318
10290 10292 10295 10297 10299 10301 10303 10306 10308 10308 10309 10311 10314 10316 10316 10315 10314 10314 10314 10315 10316 10317 10317 10316 10315 10314 10313 10314 10316 10318 10319 10320 10321 10322 10324 10325 10325 10323 10322 10322 10321 10320 10318 10317 10316 10315 10315 10314 10314 10313 10311 10310 10308 10307 10306 10306 10306 10305 10304 10304 10304 10304 10303 10303 10303 10303 10303 10303 10302 10302 10301 10300 10300 10299 10299 10300 10299 10299 10299 10300 10302 10303 10303 10305 10307
10278 10278 10279 10280 10282 10283 10286 10289 10292 10293 10295 10298 10302 10304 10304 10303 10303 10303 10304 10304 10304 10305 10306 10305 10304 10303 10303 10303 10303 10304 10305 10305 10306 10308 10311 10312 10313 10313 10312 10312 10310 10309 10308 10307 10306 10306 10305 10305 10304 10303 10301 10300 10299 10298 10298 10297 10296 10296 10295 10295 10295 10294 10294 10293 10293 10293 10292 10292 10291 10291 10290 10289 10289 10288 10288 10288 10288 10288 10288 10290 10292 10292 10292 10293 10294
10266 10267 10266 10266 10267 10268 10269 10271 10274 10277 10279 10283 10287 10290 10290 10289 10290 10291 10291 10292 10293 10294 10293 10293 10292 10293 10294 10294 10294 10294 10294 10294 10294 10295 10296 10298 10300 10301 10301 10301 10300 10299 10298 10298 10297 10297 10296 10295 10294 10293 10292 10291 10291 10290 10289 10288 10287 10287 10286 10286 10286 10285 10284 10284 10284 10283 10282 10282 10281 10281 10280 10279 10278 10278 10279 10279 10279 10278 10278 10279 10280 10281 10281 10282 10283
10252 10255 10255 10254 10254 10255 10256 10258 10260 10261 10263 10267 10271 10273 10274 10275 10276 10277 10276 10277 10279 10279 10278 10278 10280 10283 10284 10284 10284 10285 10285 10285 10285 10284 10284 10286 10288 10290 10290 10291 10290 10289 10288 10288 10288 10288 10287 10286 10285 10285 10284 10284 10283 10281 10280 10280 10279 10278 10278 10278 10277 10277 10276 10275 10275 10274 10273 10273 10272 10271 10271 10271 10270 10270 10269 10269 10269 10268 10268 10269 10270 10272 10272 10272 10272
10240 10243 10243 10243 10243 10243 10244 10246 10248 10247 10249 10252 10255 10257 10259 10261 10262 10263 10263 10262 10263 10263 10264 10266 10270 10272 10273 10273 10275 10276 10276 10275 10274 10274 10274 10276 10278 10279 10280 10281 10280 10280 10279 10280 10280 10280 10279 10278 10278 10277 10276 10275 10274 10273 10273 10272 10271 10271 10270 10270 10269 10269 10268 10267 10266 10266 10265 10264 10264 10263 10263 10263 10262 10261 10260 10260 10260 10259 10260 10261 10262 10263 10263 10262 10262
10228 10230 10230 10230 10231 10230 10231 10234 10236 10235 10236 10240 10242 10244 10245 10247 10249 10250 10251 10250 10250 10251 10254 10257 10259 10261 10262 10264 10266 10267 10266 10265 10265 10265 10266 10267 10268 10270 10271 10271 10272 10271 10271 10271 10271 10271 10271 10271 10270 10269 10268 10267 10267 10266 10266 10265 10264 10263 10263 10262 10262 10262 10262 10260 10259 10258 10258 10257 10257 10256 10255 10254 10254 10253 10253 10253 10253 10253 10253 10253 10253 10254 10254 10254 10253
10213 10215 10216 10217 10218 10219 10219 10221 10224 10225 10226 10228 10231 10232 10234 10236 10238 10239 10240 10240 10240 10241 10244 10247 10249 10250 10252 10254 10255 10255 10255 10255 10256 10256 10257 10258 10260 10261 10262 10263 10263 10263 10263 10263 10263 10263 10263 10263 10261 10260 10260 10260 10260 10259 10259 10258 10257 10257 10256 10256 10255 10255 10254 10254 10253 10252 10251 10251 10250 10248 10247 10247 10247 10248 10247 10247 10247 10246 10246 10246 10246 10246 10246 10245 10245
10198 10201 10202 10204 10206 10208 10208 10209 10212 10214 10216 10218 10221 10222 10223 10225 10227 10228 10229 10230 10231 10232 10235 10237 10238 10240 10242 10243 10244 10245 10246 10247 10248 10248 10248 10250 10251 10252 10254 10255 10255 10255 10255 10256 10256 10255 10255 10254 10253 10253 10253 10253 10252 10252 10252 10251 10251 10250 10250 10250 10249 10248 10247 10247 10247 10246 10245 10244 10243 10242 10242 10242 10242 10241 10241 10241 10241 10240 10240 10240 10239 10239 10239 10238 10238
10185 10188 10190 10192 10194 10196 10197 10198 10200 10202 10205 10207 10210 10212 10213 10214 10216 10217 10219 10221 10222 10223 10225 10226 10228 10230 10232 10233 10234 10236 10237 10239 10239 10240 10241 10242 10243 10245 10246 10247 10247 10247 10248 10248 10248 10247 10247 10246 10246 10246 10246 10246 10245 10245 10245 10245 10245 10244 10244 10244 10243 10242 10241 10241 10240 10239 10238 10237 10237 10237 10237 10236 10235 10235 10235 10235 10235 10234 10234 10234 10233 10233 10232 10231 10231
10174 10176 10178 10180 10183 10185 10186 10188 10191 10193 10194 10197 10200 10202 10203 10204 10205 10207 10210 10212 10213 10214 10215 10217 10218 10221 10223 10224 10225 10227 10228 10230 10231 10233 10234 10235 10236 10238 10238 10239 10239 10240 10240 10240 10240 10240 10240 10240 10240 10240 10239 10239 10239 10239 10239 10239 10239 10239 10239 10238 10237 10235 10235 10234 10234 10233 10232 10232 10231 10231 10231 10230 10230 10230 10230 10229 10229 10229 10228 10228 10227 10227 10226 10226 10225
10163 10165 10166 10169 10172 10174 10176 10179 10182 10184 10185 10187 10190 10192 10193 10194 10195 10198 10201 10203 10204 10205 10206 10208 10210 10212 10214 10215 10217 10219 10220 10222 10224 10226 10228 10229 10230 10230 10231 10231 10232 10232 10232 10232 10233 10233 10233 10234 10234 10234 10233 10233 10233 10233 10233 10233 10233 10233 10233 10232 10231 10230 10229 10228 10228 10227 10227 10227 10226 10225 10225 10225 10225 10225 10225 10224 10223 10223 10223 10222 10222 10222 10221 10221 10220
10155 10156 10157 10160 10163 10165 10167 10170 10173 10175 10177 10179 10180 10182 10183 10185 10187 10190 10193 10194 10194 10196 10198 10201 10202 10204 10206 10208 10210 10212 10214 10216 10219 10220 10221 10221 10222 10223 10224 10224 10225 10225 10225 10226 10226 10227 10227 10228 10228 10227 10227 10227 10228 10228 10228 10228 10228 10228 10227 10227 10226 10224 10223 10222 10222 10222 10221 10221 10221 10220 10220 10220 10220 10219 10219 10219 10219 10218 10218 10217 10217 10217 10217 10216 10216
10147 10148 10150 10152 10154 10156 10159 10161 10164 10166 10168 10170 10171 10173 10175 10177 10179 10182 10185 10186 10186 10188 10190 10193 10195 10196 10198 10200 10203 10206 10208 10210 10212 10212 10213 10214 10216 10217 10217 10218 10218 10218 10219 10220 10221 10222 10222 10222 10222 10222 10222 10222 10222 10222 10223 10223 10223 10222 10222 10221 10220 10219 10218 10217 10217 10217 10217 10217 10216 10216 10215 10215 10215 10215 10215 10215 10215 10214 10214 10213 10213 10213 10213 10212 10211
10141 10142 10143 10145 10147 10149 10151 10153 10155 10157 10159 10161 10164 10166 10167 10169 10172 10175 10177 10178 10179 10180 10183 10185 10187 10189 10192 10194 10197 10200 10202 10203 10204 10205 10206 10208 10209 10210 10211 10212 10212 10213 10214 10215 10216 10216 10216 10216 10216 10217 10217 10217 10217 10217 10218 10218 10218 10217 10217 10216 10215 10214 10214 10213 10213 10213 10213 10212 10212 10212 10211 10211 10212 10212 10211 10211 10211 10210 10210 10210 10209 10209 10208 10208 10207
10135 10136 10137 10138 10139 10142 10144 10145 10147 10150 10152 10154 10156 10158 10159 10161 10164 10167 10169 10171 10172 10173 10175 10177 10181 10184 10186 10188 10191 10193 10195 10196 10197 10198 10199 10201 10202 10204 10205 10206 10207 10208 10209 10210 10210 10210 10210 10211 10211 10212 10212 10212 10212 10212 10213 10213 10213 10213 10212 10211 10210 10210 10210 10210 10210 10209 10209 10208 10208 10208 10208 10209 10209 10208 10208 10208 10207 10207 10207 10206 10206 10205 10205 10205 10204
10128 10129 10130 10131 10133 10135 10137 10138 10140 10142 10144 10146 10148 10150 10152 10155 10158 10161 10163 10164 10165 10166 10168 10171 10175 10178 10180 10182 10184 10186 10187 10188 10190 10191 10193 10195 10197 10198 10200 10201 10202 10203 10204 10204 10204 10205 10206 10206 10207 10207 10207 10207 10207 10207 10208 10208 10208 10208 10208 10207 10206 10206 10206 10206 10206 10206 10205 10205 10205 10205 10206 10206 10205 10205 10205 10204 10204 10204 10204 10203 10203 10202 10202 10202 10201
10123 10124 10125 10126 10127 10129 10130 10132 10134 10136 10138 10139 10142 10144 10146 10148 10151 10153 10155 10157 10158 10161 10164 10167 10169 10171 10173 10176 10178 10179 10180 10182 10184 10186 10188 10190 10191 10193 10194 10195 10197 10197 10198 10199 10199 10200 10201 10201 10202 10202 10202 10202 10202 10203 10203 10204 10204 10204 10204 10203 10203 10202 10203 10203 10203 10203 10202 10202 10202 10203 10203 10202 10202 10202 10202 10202 10201 10201 10201 10201 10200 10199 10199 10199 10198
10119 10120 10120 10121 10122 10124 10125 10127 10128 10130 10132 10134 10136 10138 10140 10142 10145 10147 10149 10151 10154 10156 10159 10161 10163 10165 10167 10169 10170 10172 10174 10177 10179 10181 10182 10184 10185 10187 10188 10189 10190 10191 10192 10193 10194 10195 10196 10197 10197 10197 10197 10198 10198 10198 10199 10199 10200 10200 10200 10199 10199 10199 10200 10200 10200 10200 10199 10199 10199 10199 10199 10199 10199 10199 10199 10199 10199 10198 10198 10198 10198 10197 10196 10196 10195
10115 10115 10116 10117 10118 10119 10120 10122 10123 10125 10127 10128 10130 10132 10135 10137 10140 10142 10144 10147 10149 10151 10153 10155 10157 10159 10161 10162 10165 10167 10170 10172 10173 10175 10177 10178 10179 10181 10182 10183 10185 10186 10187 10188 10189 10190 10191 10192 10192 10193 10193 10193 10194 10194 10195 10195 10196 10196 10196 10196 10196 10196 10196 10197 10197 10197 10196 10196 10196 10196 10197 10197 10196 10196 10196 10196 10196 10196 10196 10195 10195 10194 10194 10193 10192
10111 10112 10112 10113 10114 10115 10116 10117 10119 10120 10121 10123 10125 10127 10129 10132 10134 10136 10139 10141 10144 10146 10148 10149 10151 10153 10155 10158 10160 10163 10164 10166 10168 10169 10171 10172 10173 10175 10177 10178 10180 10181 10183 10184 10185 10186 10187 10187 10188 10188 10189 10189 10190 10190 10191 10191 10192 10192 10192 10192 10192 10193 10193 10194 10194 10194 10193 10193 10194 10194 10194 10194 10194 10194 10194 10194 10194 10194 10193 10193 10193 10192 10191 10191 10190
10107 10108 10109 10110 10111 10111 10112 10113 10115 10116 10117 10119 10121 10122 10124 10127 10129 10131 10134 10136 10138 10140 10142 10144 10146 10148 10151 10154 10156 10157 10159 10160 10162 10164 10165 10166 10168 10170 10172 10174 10175 10177 10178 10179 10180 10181 10182 10183 10183 10184 10185 10185 10186 10187 10187 10188 10188 10189 10189 10189 10189 10189 10190 10191 10191 10191 10191 10191 10191 10191 10192 10192 10192 10192 10192 10192 10192 10192 10191 10191 10190 10190 10189 10189 10188
10104 10105 10106 10107 10108 10109 10109 10110 10111 10113 10114 10115 10117 10119 10120 10122 10125 10127 10129 10131 10133 10135 10137 10139 10142 10144 10147 10148 10150 10151 10153 10155 10157 10158 10160 10162 10164 10165 10167 10169 10171 10172 10173 10174 10175 10177 10177 10178 10179 10180 10181 10182 10182 10183 10183 10184 10185 10185 10185 10186 10186 10186 10187 10187 10188 10188 10188 10188 10189 10189 10189 10189 10189 10190 10190 10190 10190 10190 10189 10189 10189 10188 10187 10187 10186
10102 10103 10103 10104 10105 10106 10107 10108 10109 10110 10111 10112 10114 10115 10117 10119 10121 10123 10125 10127 10129 10131 10133 10135 10138 10139 10141 10143 10145 10146 10148 10150 10152 10154 10156 10157 10159 10161 10163 10164 10166 10167 10168 10170 10171 10172 10173 10174 10175 10177 10177 10178 10179 10179 10180 10180 10181 10182 10182 10182 10183 10183 10184 10184 10185 10185 10186 10186 10186 10187 10187 10187 10187 10188 10188 10188 10188 10188 10188 10187 10187 10186 10186 10185 10185
10100 10101 10101 10102 10103 10104 10105 10106 10106 10107 10108 10109 10111 10112 10114 10116 10117 10119 10121 10123 10125 10127 10129 10131 10133 10135 10136 10138 10140 10142 10144 10146 10148 10149 10151 10153 10154 10156 10158 10160 10161 10163 10164 10165 10167 10168 10169 10170 10172 10173 10174 10174 10175 10176 10176 10177 10178 10178 10179 10179 10179 10180 10181 10181 10182 10182 10183 10183 10184 10184 10184 10184 10185 10186 10186 10186 10186 10186 10186 10186 10185 10185 10184 10184 10183
10099 10099 10100 10100 10101 10102 10103 10104 10104 10105 10106 10107 10108 10110 10111 10112 10114 10116 10117 10119 10121 10123 10125 10127 10129 10131 10132 10134 10136 10138 10140 10142 10143 10145 10147 10148 10150 10152 10153 10155 10157 10158 10160 10161 10163 10164 10165 10167 10168 10169 10170 10171 10171 10172 10173 10173 10174 10175 10175 10176 10176 10177 10178 10178 10179 10180 10180 10181 10181 10182 10182 10182 10182 10183 10184 10184 10184 10185 10185 10184 10184 10183 10183 10183 10182